SCP
0 0 0 0 0 0 0 0 0 0 0 0 0 0 0 0 0 0 0 0 0 0 1 1 2 3 4 4 3 3 3 3 3 3 2 2 2 1 1 1 1 1 1 1 1 0 0 0 0
0 0 0 0 0 0 0 0 0 0 0 0 0 0 0 0 0 0 1 1 1 1 1 1 2 3 4 4 4 3 3 3 3 3 3 2 2 1 1 1 1 1 1 1 1 0 0 0 0
0 0 0 0 0 0 0 0 0 0 0 0 0 0 0 0 0 0 1 1 1 1 1 1 1 2 4 5 5 4 4 4 4 3 3 2 2 2 1 1 1 1 1 1 1 0 0 0 0
0 0 0 0 0 0 0 0 0 0 0 0 0 0 0 0 1 1 2 2 2 2 1 1 1 2 3 4 5 5 4 4 4 4 3 3 2 2 1 1 1 1 1 1 1 1 1 0 0
0 0 0 0 0 0 0 0 0 0 0 0 0 0 0 0 1 2 2 2 2 2 2 2 2 2 2 3 4 4 4 4 4 4 4 4 3 2 2 1 1 1 1 1 1 1 1 1 0
0 0 0 0 0 0 0 0 0 0 0 0 0 0 0 1 1 2 3 3 2 2 2 2 2 2 2 2 3 3 3 4 4 5 5 4 4 3 2 2 1 1 1 1 1 1 1 1 0
0 0 0 0 0 0 0 0 0 0 0 0 0 0 0 0 1 2 2 3 3 3 2 2 2 3 3 2 2 2 2 3 3 4 4 4 4 3 3 2 2 1 1 1 1 1 1 1 0
0 0 0 0 0 0 0 0 0 0 0 0 0 0 0 0 1 2 2 2 3 2 2 2 2 2 2 2 2 1 1 2 2 3 3 3 3 3 3 2 2 2 1 1 1 1 1 0 0
0 0 0 0 0 0 0 0 0 0 0 0 0 0 0 1 1 2 2 3 2 2 2 2 2 2 2 2 1 1 1 1 1 2 2 2 3 3 2 2 2 2 1 1 1 1 1 0 0
0 0 0 0 0 0 0 0 0 0 0 0 0 0 0 1 1 2 2 2 2 2 2 1 1 2 2 2 2 1 1 1 1 1 1 2 2 2 2 2 1 1 1 1 1 1 0 0 0
0 0 0 0 0 0 0 0 0 0 0 0 0 0 0 0 1 1 1 2 2 2 2 1 1 1 2 2 2 2 1 1 1 1 1 1 1 2 2 2 1 1 1 1 1 0 0 0 0
0 0 0 0 0 0 0 0 0 0 0 0 0 0 0 0 0 0 0 1 1 1 1 1 1 1 1 2 2 2 2 1 1 1 0 0 1 1 2 2 1 1 1 1 0 0 0 0 0
0 0 0 0 0 0 0 0 0 0 0 0 0 0 0 0 0 0 0 0 0 0 1 1 1 1 1 2 2 2 2 1 1 1 1 0 0 1 1 1 1 1 1 1 1 0 0 0 0
0 0 0 0 0 0 0 0 0 0 0 0 0 1 1 0 0 0 0 0 0 0 0 1 1 1 1 1 2 2 2 1 1 1 1 0 0 0 1 1 1 1 1 1 1 0 0 0 0
0 0 0 0 0 0 0 0 0 0 0 0 0 1 1 1 0 0 0 0 0 0 0 1 1 1 1 1 1 1 1 1 1 1 1 0 0 0 0 1 1 1 1 1 1 1 0 0 0
0 0 0 0 0 0 0 0 0 0 0 0 0 1 1 1 0 0 0 0 0 0 0 0 1 1 0 0 1 1 1 1 1 1 1 1 0 0 0 0 1 1 1 1 1 1 0 0 0
0 0 0 0 0 0 0 0 0 0 0 0 0 0 1 1 0 0 0 0 0 0 0 0 1 1 1 0 0 1 1 1 1 1 1 1 0 0 0 0 1 1 1 0 0 0 0 0 0
0 0 0 0 0 0 0 0 0 0 0 0 0 0 0 0 0 0 0 0 0 0 0 0 1 1 1 0 0 0 0 1 1 1 1 1 1 0 0 0 0 1 1 0 0 0 0 0 0
0 0 0 0 0 0 0 0 0 0 0 0 0 0 0 0 0 0 0 1 1 0 0 0 1 1 1 0 0 0 0 0 0 1 1 1 1 1 0 0 0 0 0 0 0 0 0 0 0
0 0 0 0 0 0 0 0 0 0 0 0 0 0 0 0 0 1 1 1 1 0 0 0 1 1 1 0 0 0 0 0 0 0 1 1 1 1 1 0 0 0 0 0 0 0 0 0 0
0 0 0 0 0 0 0 0 0 0 0 0 0 0 0 0 0 0 1 1 0 0 0 0 1 1 1 0 0 0 0 0 0 0 0 1 1 1 1 1 0 0 0 0 0 0 0 0 0
0 0 0 0 0 0 0 0 0 0 0 0 0 0 0 0 0 0 1 1 0 0 0 0 1 2 1 0 0 0 0 0 0 0 0 0 1 1 1 1 1 0 0 0 0 0 0 0 0
0 0 0 0 0 0 0 0 0 0 0 0 0 0 0 0 0 0 0 0 0 0 0 0 1 2 1 0 0 0 0 0 0 0 0 0 0 1 1 1 1 1 0 0 0 0 0 0 0
0 0 0 0 0 0 0 0 0 0 0 0 0 0 0 0 0 0 0 0 0 0 0 0 1 2 1 0 0 0 0 0 0 0 0 0 0 1 1 1 1 1 0 0 0 0 0 0 0
0 0 0 0 0 0 0 0 0 0 0 0 0 0 0 0 0 0 0 0 0 0 0 0 1 1 1 0 0 0 0 0 0 0 0 0 0 0 1 1 1 1 0 0 0 0 0 0 0
0 0 0 0 0 0 0 0 0 0 0 0 0 0 0 0 0 0 0 0 0 0 0 0 1 1 1 0 0 0 0 0 0 0 0 0 0 0 0 1 1 1 1 0 0 0 0 0 0
0 0 0 0 0 0 0 0 0 0 0 0 0 0 0 0 0 0 0 0 0 0 0 0 1 1 1 0 0 0 0 0 0 0 0 0 0 0 0 1 1 1 1 1 0 0 0 0 0
0 0 0 0 0 0 0 0 0 0 0 0 0 0 0 0 0 0 0 0 0 0 0 0 1 1 1 0 0 0 0 0 0 0 0 0 0 0 1 1 1 2 2 1 0 0 0 0 0
0 0 0 0 0 0 0 0 0 0 0 0 0 0 0 0 0 0 0 0 0 0 0 0 1 1 1 0 0 0 0 0 0 0 0 0 0 0 1 1 1 2 2 1 1 0 0 0 0
0 0 0 0 0 0 0 0 0 0 0 0 0 0 0 0 0 0 0 0 0 0 0 0 1 1 1 0 0 0 0 0 0 0 0 0 0 0 1 1 1 2 2 2 1 1 0 0 0
Wind_Speed
7 3 2 4 6 4 2 3 2 1 1 0 1 2 5 4 3 2 0 1 2 1 1 1 3 6 8 8 9 8 8 8 8 8 9 9 9 9 9 9 9 9 10 10 10 10 11 11 11
2 2 5 5 5 2 4 3 3 3 2 2 3 3 3 1 1 1 1 1 2 2 1 1 3 6 7 8 8 8 8 8 8 8 8 8 8 8 8 8 9 9 9 10 10 10 11 10 11
1 4 5 5 3 5 4 3 4 1 1 2 2 3 2 1 0 0 1 1 3 3 2 2 3 5 7 7 7 8 8 7 7 7 7 7 8 8 8 8 9 9 9 9 9 10 10 10 10
3 5 5 4 3 4 3 1 2 2 2 3 3 2 1 2 1 1 1 3 4 3 2 2 4 5 6 7 7 7 7 7 6 7 6 6 7 7 8 8 8 8 8 9 9 9 10 10 10
4 5 4 1 3 3 2 1 2 2 1 1 2 2 0 2 2 3 4 4 4 3 3 2 4 5 6 6 7 6 6 6 6 6 6 6 6 7 7 7 7 7 7 8 9 9 9 9 9
5 4 3 3 4 3 2 1 2 2 1 1 3 2 1 1 2 2 3 4 3 4 3 3 4 5 5 5 6 6 6 6 5 5 6 6 6 6 6 6 7 7 7 8 8 9 9 8 9
4 4 3 3 3 3 2 1 2 2 2 2 3 3 1 0 1 2 4 4 4 4 4 3 3 3 4 5 5 6 6 5 5 6 6 6 7 7 6 6 6 6 7 7 8 8 8 9 9
4 5 2 3 4 4 1 1 1 2 2 1 2 4 3 2 2 4 5 4 4 4 4 3 3 4 3 3 5 6 5 5 5 6 6 6 6 7 7 6 6 6 6 7 7 8 8 8 8
3 3 4 5 5 3 1 1 1 1 3 1 1 0 0 4 5 5 4 3 3 3 3 3 3 3 3 3 4 4 5 5 5 4 6 6 3 3 4 5 6 6 6 6 7 7 8 7 7
4 3 6 3 3 3 1 1 1 2 1 0 1 1 2 5 5 5 4 3 2 1 1 2 2 2 2 2 2 2 3 3 3 3 3 3 3 2 3 5 6 6 6 6 6 7 7 6 3
3 4 3 1 1 1 1 0 0 3 2 4 4 4 4 4 4 4 4 3 3 2 1 1 1 2 2 2 2 2 2 2 3 3 3 2 2 2 2 2 3 3 4 3 4 4 3 2 2
2 1 1 0 0 1 1 1 1 2 4 2 3 4 5 5 5 5 5 4 3 2 2 1 1 1 2 2 2 2 1 1 2 2 3 2 2 2 2 1 2 2 2 2 2 1 2 2 2
1 1 0 1 1 1 1 1 1 3 3 0 3 4 4 5 5 3 3 2 2 2 2 1 2 2 2 2 1 2 1 1 1 1 1 2 1 1 1 1 2 2 2 1 1 1 2 2 2
2 1 1 1 1 0 1 2 1 5 2 2 3 4 4 4 4 2 2 3 3 3 2 2 2 2 2 2 2 2 1 1 1 1 1 1 1 1 1 1 1 1 1 1 1 1 1 1 1
1 0 2 2 0 1 1 4 5 4 2 2 2 3 3 3 3 3 4 3 4 3 2 2 2 2 2 2 2 2 1 1 1 1 1 1 1 1 1 1 1 1 1 1 1 2 2 2 2
2 1 2 2 1 1 2 8 4 2 3 3 3 3 3 3 3 3 3 3 3 3 3 2 2 2 2 2 2 2 1 1 1 1 1 1 1 2 1 0 1 1 1 1 1 1 2 1 1
2 1 3 3 1 1 3 7 4 2 3 4 4 4 4 3 3 3 3 3 3 3 3 3 3 3 2 2 2 2 2 1 1 1 1 1 1 1 2 1 0 1 1 1 1 1 1 1 1
4 3 3 4 2 2 3 7 7 2 3 5 5 4 4 5 6 3 3 3 3 2 2 3 3 2 2 2 1 1 1 1 1 1 1 1 1 2 2 1 0 1 1 1 1 1 1 1 0
3 3 4 4 1 2 6 9 10 5 4 6 6 5 5 6 4 1 1 2 2 2 2 3 3 2 2 2 2 1 1 1 0 0 1 1 1 2 2 1 1 1 1 1 1 1 2 1 1
2 3 5 3 1 2 5 10 8 6 6 7 7 7 6 4 2 1 1 1 2 2 2 2 3 3 3 2 2 1 1 0 0 0 0 0 1 1 2 2 1 2 1 2 2 2 2 1 1
4 5 6 4 3 1 3 8 5 4 3 3 4 5 5 5 5 3 2 2 2 2 3 2 2 2 3 3 2 2 2 1 1 1 1 1 1 1 1 1 2 2 2 2 2 3 3 3 1
6 4 4 3 2 3 1 6 7 4 4 5 6 5 5 5 4 4 3 3 3 3 2 2 2 2 2 3 3 3 2 2 2 1 1 1 0 1 1 1 2 2 2 2 2 3 3 4 3
4 1 2 2 2 3 2 4 9 1 6 8 7 6 6 5 5 5 4 4 3 2 2 2 2 2 2 2 3 3 2 1 0 0 0 1 1 1 1 1 2 2 2 2 3 2 3 3 3
3 2 2 1 0 6 6 6 10 5 7 5 5 5 5 4 4 3 2 2 1 1 1 1 2 1 1 2 2 3 3 2 1 1 1 1 1 1 1 1 2 2 2 2 3 3 3 3 3
1 3 2 3 2 7 3 5 11 5 4 4 4 4 3 3 3 2 1 1 1 1 1 1 2 2 1 2 2 2 2 3 3 3 2 2 2 2 2 2 2 2 2 2 3 3 3 4 4
3 4 5 5 5 5 2 8 9 3 2 2 2 2 2 2 2 3 3 3 2 2 2 2 2 1 1 1 1 1 1 1 2 2 2 2 2 2 2 2 3 2 2 2 2 3 3 3 4
3 3 2 2 1 3 7 8 9 2 2 1 1 1 2 3 2 3 2 2 2 2 2 2 2 1 1 1 0 0 1 1 1 2 2 2 2 2 2 2 2 2 2 2 2 3 3 3 4
2 3 2 3 2 5 6 6 6 4 4 3 2 3 3 2 2 2 2 2 2 2 2 2 2 2 1 1 0 0 1 1 1 1 2 2 2 2 2 2 2 2 2 2 2 3 3 3 3
2 2 3 2 3 4 5 8 5 5 4 4 5 4 3 3 3 3 2 2 1 1 1 1 1 1 1 0 0 0 1 1 1 1 2 2 2 2 2 2 2 2 2 2 2 2 3 4 3
2 4 5 4 5 4 4 9 2 2 3 3 3 3 2 2 2 1 1 1 1 1 1 1 1 1 1 0 0 0 1 1 1 1 2 2 2 2 2 2 2 2 2 2 3 3 3 4 4
Wind_Direction
338 356 53 58 60 59 214 238 203 206 200 79 65 113 135 138 157 178 4 81 61 111 150 155 127 125 119 115 111 106 101 96 92 89 92 93 94 91 88 85 82 80 82 83 83 82 82 80 78
340 25 53 61 98 159 246 229 204 213 166 110 59 65 87 93 20 58 12 354 68 110 115 117 111 118 118 117 114 111 105 101 97 92 90 93 94 91 89 85 82 80 80 81 83 86 85 81 79
35 56 78 78 126 189 212 214 199 191 84 92 76 48 85 118 21 219 297 110 89 90 78 98 103 113 115 116 116 115 110 103 98 95 90 91 91 90 88 85 82 78 76 78 83 86 86 83 80
73 52 59 84 203 231 219 205 160 124 57 57 108 84 27 16 335 299 65 96 98 88 75 99 103 116 119 117 114 114 113 108 101 95 90 88 90 87 85 83 81 78 77 76 79 85 86 85 83
62 78 78 99 232 247 253 254 161 145 137 79 121 130 353 1 26 72 90 97 104 94 72 90 95 111 120 122 118 113 110 108 104 97 89 87 91 91 84 83 82 81 80 78 79 82 86 86 85
65 74 111 208 234 256 268 250 152 142 136 116 133 136 182 28 46 68 88 92 92 94 79 72 78 85 104 116 115 112 105 96 92 92 88 85 89 93 88 84 84 84 82 79 80 80 81 84 85
110 109 165 189 210 248 236 166 163 165 152 191 163 140 205 333 52 90 88 85 75 74 73 64 58 63 76 85 88 95 95 91 86 79 75 74 77 81 80 78 82 82 81 82 80 79 78 78 79
123 116 154 195 198 232 209 119 89 147 168 85 134 156 214 206 120 96 87 82 77 68 66 63 59 56 58 66 75 77 81 81 79 76 69 67 68 69 68 65 71 76 79 81 80 79 78 77 78
95 99 201 206 192 215 158 125 38 55 104 75 50 186 248 123 117 104 90 75 74 67 58 64 69 65 59 61 65 69 69 67 68 64 68 66 56 59 60 53 57 63 73 80 80 77 76 73 72
103 173 219 210 185 169 142 150 160 98 74 336 7 34 83 121 133 137 139 143 138 138 84 66 74 81 74 67 66 61 59 57 56 56 60 61 51 52 64 56 55 54 59 70 77 75 72 66 65
133 192 214 210 172 146 142 138 175 151 219 220 204 183 148 144 153 166 171 172 176 175 140 89 88 92 94 88 83 60 51 53 53 52 55 61 59 49 51 53 48 44 51 53 61 67 62 62 68
140 240 213 230 92 135 184 172 183 193 224 227 186 158 157 167 182 191 191 186 172 167 182 151 120 118 115 106 106 91 69 65 66 55 57 66 66 56 46 47 46 45 46 53 55 63 65 69 73
188 231 13 98 89 110 118 222 227 249 248 95 117 135 167 186 197 202 195 184 176 187 197 187 152 150 136 120 120 109 104 98 97 86 71 74 78 75 59 50 46 46 43 57 64 57 64 70 67
172 157 269 310 247 194 179 265 241 257 218 152 156 173 186 198 201 193 196 202 200 202 205 198 167 156 147 143 145 140 136 128 109 98 81 100 99 85 74 77 57 43 45 41 62 70 72 65 70
100 53 319 293 255 241 140 292 238 240 156 173 196 199 202 209 202 208 211 212 210 201 193 193 175 151 157 158 154 142 147 139 126 128 122 110 109 120 96 105 102 47 40 57 60 60 70 64 58
41 29 283 284 189 235 150 258 259 197 168 218 226 226 234 232 220 228 225 222 211 190 187 192 166 157 168 166 153 144 143 140 140 134 138 134 126 127 127 105 127 109 82 62 82 88 89 75 59
24 257 258 288 212 154 186 249 267 174 185 230 237 235 238 248 251 241 222 214 205 192 184 181 170 170 173 162 145 137 138 142 150 134 132 139 136 140 146 128 158 128 112 83 77 96 110 111 70
215 221 248 252 251 162 218 253 274 251 207 238 246 243 240 245 249 237 210 198 190 184 175 173 171 168 160 141 113 114 120 144 146 147 141 139 151 158 147 125 157 126 118 108 84 112 100 120 98
179 199 244 252 232 207 240 259 269 260 236 242 246 242 243 247 252 226 184 161 149 155 164 172 172 169 155 161 167 169 193 199 153 179 156 142 143 156 147 131 152 141 147 159 136 133 128 99 86
207 240 267 281 265 230 267 271 267 244 228 225 227 232 238 243 255 237 164 145 169 178 181 177 184 179 177 175 175 167 156 200 204 227 20 133 140 150 162 148 161 167 157 150 140 143 154 130 101
232 224 237 254 319 307 304 291 264 254 240 240 229 230 232 223 223 215 197 201 202 207 201 194 198 185 177 156 128 99 80 54 32 7 333 323 173 167 158 167 165 175 169 177 173 172 163 168 151
250 236 221 225 252 283 219 285 276 245 257 243 239 237 236 230 222 210 198 203 215 225 209 194 184 166 164 156 157 158 171 198 226 222 238 282 212 194 193 179 175 185 186 183 185 177 174 167 174
215 163 187 223 220 275 240 250 279 257 248 245 236 233 234 227 218 213 205 204 211 210 193 187 170 155 151 158 166 172 178 204 202 173 199 257 255 216 205 196 195 191 198 195 185 174 178 176 180
155 77 27 14 116 259 226 208 272 228 226 238 232 232 236 224 217 217 205 169 161 163 158 153 156 151 148 157 167 177 180 182 178 221 240 256 261 253 239 209 205 210 200 208 195 183 181 183 182
119 108 20 342 305 252 214 215 251 252 236 225 233 239 237 217 197 197 194 184 180 181 181 166 163 169 164 156 166 188 188 188 202 214 224 231 240 249 252 235 223 226 221 216 200 182 183 188 189
204 169 180 211 234 271 242 234 253 260 278 273 247 226 212 207 197 199 204 201 201 193 182 174 175 181 170 175 194 188 193 199 215 226 228 230 238 240 237 228 229 225 225 219 206 195 192 193 198
159 207 195 159 276 273 261 273 291 279 296 295 260 225 226 226 215 209 208 203 200 193 191 185 176 164 162 174 174 197 203 216 228 235 233 239 246 246 224 220 225 228 224 217 208 213 202 197 203
166 154 122 157 195 258 278 266 258 269 261 248 237 239 248 236 232 226 213 210 207 197 182 160 163 169 171 159 184 270 288 275 256 247 242 243 248 245 231 228 227 232 231 223 214 223 204 199 211
156 168 176 176 193 200 261 266 238 240 237 228 235 239 237 232 229 222 216 209 189 156 143 146 148 125 126 175 207 17 321 314 290 257 255 255 258 247 239 235 229 233 237 229 218 227 207 204 217
203 193 170 189 240 231 246 268 287 249 258 230 238 252 242 227 225 209 189 159 140 144 141 165 173 170 197 189 106 23 347 334 308 288 281 272 261 254 247 243 233 233 237 233 224 231 218 208 216